Flag for U.S.A. Weather past 2 weeks in Coeur d'Alene, Idaho, U.S.A.

Now
39 °F

Cloudy.


Feels Like: 35 °F
Forecast: 36 / 41 °F
Wind: 6 mph from South

Location: Coeur d'Alene Weather Reporting System

Current Time: Dec 18, 2014 at 10:39:50 AM

Latest Report: Dec 18, 2014 at 9:55 AM


Visibility: 10 mi

Pressure: 30.00 "Hg

Humidity: 87%

Dew point: 36 °F

Location of Coeur d'AleneLocation

Historic Weather in Coeur d'Alene — Graph

°F

Coeur d'Alene temperature yesterday

Maximum temperature yesterday: 37 °F (at 11:35 AM)
Minimum temperature yesterday: 30 °F (at 6:55 AM)
Average temperature yesterday: 35 °F

Past Weeks' High & Low Weather Summary

 TemperatureHumidityPressure
High55 °F (Dec 10, 8:55 PM)100% (Dec 3, 11:35 PM)30.32 "Hg (Dec 3, 11:35 PM)
Low25 °F (Dec 3, 9:35 AM)51% (Dec 3, 12:15 PM)29.45 "Hg (Dec 11, 6:15 PM)
Average37 °F85%29.99 "Hg
* Reported Dec 3 9:35 AM — Dec 18 9:35 AM, Coeur d'Alene, Weather by CustomWeather, © 2014

Note: Actual official high and low records may vary slightly from our data, if they occured in-between our weather recording intervals... More about our weather records

Advertising

Coeur d'Alene weather history for previous 24 hours

 ConditionsComfort  
Time TempWeatherWind HumidityBarometerVisibility
9:35 AM
Dec 18
39 °FOvercast.5 mph87%30.00 "Hg10 mi
9:15 AM39 °FMore clouds than sun.5 mph87%29.99 "Hg10 mi
8:55 AM37 °FMostly cloudy.5 mph93%29.99 "Hg10 mi
8:35 AM37 °FMostly cloudy.6 mph93%29.99 "Hg10 mi
8:15 AM37 °FOvercast.7 mph93%29.98 "Hg10 mi
7:55 AM37 °FOvercast.6 mph93%29.98 "Hg10 mi
7:35 AM36 °FOvercast.No wind93%29.97 "Hg9 mi
7:15 AM36 °FMostly cloudy.No wind87%29.97 "Hg4 mi
6:55 AM36 °FMostly cloudy.No wind87%29.97 "Hg5 mi
6:35 AM36 °FLow clouds.No wind87%29.97 "Hg4 mi
6:15 AM34 °FMostly cloudy.No wind93%29.97 "Hg5 mi
5:55 AM34 °FMostly cloudy.No wind93%29.97 "Hg3 mi
5:35 AM34 °FMostly cloudy.No wind93%29.97 "Hg3 mi
5:15 AM34 °FMostly cloudy.No wind93%29.97 "Hg4 mi
4:55 AM34 °FMostly cloudy.No wind93%29.96 "Hg4 mi
4:35 AM34 °FLow clouds.3 mph93%29.96 "Hg5 mi
4:15 AM34 °FLow clouds.3 mph93%29.97 "Hg5 mi
3:55 AM34 °FMostly cloudy.No wind93%29.97 "Hg5 mi
3:35 AM34 °FOvercast.3 mph93%29.97 "Hg6 mi
3:15 AM34 °FOvercast.No wind93%29.97 "Hg5 mi
2:55 AM34 °FMostly cloudy.7 mph93%29.97 "Hg3 mi
2:35 AM34 °FMostly cloudy.5 mph93%29.97 "Hg5 mi
2:15 AM34 °FMostly cloudy.3 mph93%29.97 "Hg6 mi
1:55 AM34 °FOvercast.3 mph93%29.96 "Hg10 mi
1:35 AM34 °FOvercast.5 mph93%29.96 "Hg8 mi
12:55 AM34 °FMostly cloudy.6 mph87%29.95 "Hg10 mi
12:35 AM34 °FMostly cloudy.6 mph87%29.95 "Hg10 mi
12:15 AM34 °FMostly cloudy.6 mph87%29.95 "Hg10 mi
11:55 PM
Dec 17
34 °FMostly cloudy.6 mph93%29.96 "Hg10 mi
11:35 PM34 °FOvercast.5 mph87%29.96 "Hg7 mi
11:15 PM34 °FMostly cloudy.8 mph87%29.96 "Hg5 mi
10:55 PM34 °FMostly cloudy.7 mph93%29.96 "Hg5 mi
10:35 PM34 °FMostly cloudy.9 mph93%29.96 "Hg9 mi
10:15 PM34 °FOvercast.8 mph87%29.96 "Hg8 mi
9:55 PM34 °FOvercast.8 mph87%29.95 "Hg10 mi
9:35 PM36 °FMostly cloudy.8 mph87%29.95 "Hg10 mi
9:15 PM36 °FMostly cloudy.9 mph81%29.95 "Hg10 mi
8:55 PM34 °FMostly cloudy.7 mph87%29.95 "Hg10 mi
8:35 PM34 °FMostly cloudy.8 mph87%29.94 "Hg10 mi
8:15 PM34 °FMostly cloudy.9 mph87%29.94 "Hg10 mi
7:35 PM34 °FMostly cloudy.8 mph93%29.94 "Hg10 mi
7:15 PM34 °FOvercast.10 mph87%29.94 "Hg10 mi
6:55 PM34 °FMostly cloudy.8 mph87%29.94 "Hg10 mi
6:35 PM34 °FOvercast.10 mph87%29.94 "Hg10 mi
6:15 PM36 °FMostly cloudy.10 mph81%29.94 "Hg10 mi
5:55 PM36 °FMostly cloudy.9 mph81%29.93 "Hg10 mi
5:35 PM36 °FOvercast.8 mph81%29.93 "Hg10 mi
5:15 PM36 °FOvercast.8 mph81%29.93 "Hg10 mi
4:55 PM36 °FMostly cloudy.7 mph81%29.92 "Hg10 mi
4:35 PM36 °FMostly cloudy.8 mph81%29.92 "Hg10 mi
3:55 PM36 °FMostly cloudy.8 mph81%29.92 "Hg10 mi
3:35 PM37 °FMostly cloudy.No wind75%29.92 "Hg10 mi
3:15 PM37 °FMostly cloudy.7 mph75%29.92 "Hg10 mi
2:55 PM37 °FPartly sunny.7 mph75%29.91 "Hg10 mi
2:35 PM37 °FPartly sunny.10 mph75%29.91 "Hg10 mi
2:15 PM37 °FBroken clouds.12 mph70%29.91 "Hg10 mi
1:55 PM37 °FPassing clouds.10 mph70%29.90 "Hg10 mi
1:35 PM37 °FScattered clouds.12 mph75%29.90 "Hg10 mi
1:15 PM37 °FScattered clouds.9 mph75%29.90 "Hg10 mi
12:55 PM37 °FPassing clouds.13 mph75%29.90 "Hg10 mi
12:35 PM37 °FPassing clouds.12 mph75%29.91 "Hg10 mi
12:15 PM37 °FPartly sunny.13 mph75%29.91 "Hg10 mi
11:55 AM37 °FOvercast.13 mph70%29.91 "Hg10 mi
11:35 AM37 °FOvercast.12 mph75%29.92 "Hg10 mi
11:15 AM36 °FPartly sunny.12 mph81%29.92 "Hg10 mi
10:55 AM36 °FPassing clouds.12 mph81%29.93 "Hg10 mi
10:35 AM36 °FPassing clouds.12 mph75%29.93 "Hg10 mi
10:15 AM36 °FSunny.14 mph75%29.93 "Hg10 mi
Weather by CustomWeather, © 2014

See weather overviewHow to use our weather pages